TimeMDT,TemperatureF,Dew PointF,Humidity,Sea Level PressureIn,VisibilityMPH,Wind Direction,Wind SpeedMPH,Gust SpeedMPH,PrecipitationIn,Events,Conditions,WindDirDegrees,DateUTC
12:53 AM,57.9,51.1,78,30.04,10.0,ENE,11.5,-,0.00,Rain,Light Rain,70,2013-08-08 06:53:00
1:53 AM,57.0,51.1,81,30.04,10.0,ENE,10.4,-,0.00,,Partly Cloudy,70,2013-08-08 07:53:00
2:53 AM,55.9,51.1,84,30.02,10.0,ENE,10.4,-,N/A,,Mostly Cloudy,70,2013-08-08 08:53:00
3:53 AM,54.0,50.0,86,30.03,10.0,ENE,11.5,-,N/A,,Partly Cloudy,70,2013-08-08 09:53:00
4:53 AM,53.1,50.0,89,30.05,10.0,ENE,8.1,-,N/A,,Partly Cloudy,60,2013-08-08 10:53:00
5:53 AM,53.1,50.0,89,30.05,10.0,ENE,10.4,-,N/A,,Mostly Cloudy,70,2013-08-08 11:53:00
6:53 AM,53.1,50.0,89,30.06,10.0,ENE,6.9,-,N/A,,Mostly Cloudy,70,2013-08-08 12:53:00
7:53 AM,55.0,50.0,83,30.06,10.0,ENE,8.1,-,N/A,,Mostly Cloudy,60,2013-08-08 13:53:00
8:53 AM,59.0,51.1,75,30.08,10.0,NNE,5.8,-,N/A,,Scattered Clouds,30,2013-08-08 14:53:00
9:53 AM,62.1,51.1,67,30.09,10.0,ENE,3.5,-,N/A,,Partly Cloudy,60,2013-08-08 15:53:00
10:53 AM,66.0,51.1,59,30.08,10.0,ENE,5.8,-,N/A,,Overcast,70,2013-08-08 16:53:00
11:53 AM,64.0,53.1,67,30.11,6.0,NW,6.9,-,0.00,Rain,Rain,310,2013-08-08 17:53:00
12:53 PM,64.0,55.0,73,30.12,9.0,Calm,Calm,-,0.02,Rain,Light Rain,0,2013-08-08 18:53:00
1:53 PM,62.1,57.0,84,30.11,10.0,SE,3.5,-,0.05,Rain,Light Rain,140,2013-08-08 19:53:00
2:53 PM,63.0,57.0,81,30.09,10.0,Calm,Calm,-,0.00,Rain,Light Rain,0,2013-08-08 20:53:00
3:53 PM,66.9,55.9,68,30.09,10.0,NNW,4.6,-,0.00,,Mostly Cloudy,330,2013-08-08 21:53:00
4:53 PM,71.1,53.1,53,30.09,10.0,North,3.5,-,N/A,,Scattered Clouds,350,2013-08-08 22:53:00
5:53 PM,71.1,52.0,51,30.09,10.0,East,4.6,-,N/A,,Overcast,80,2013-08-08 23:53:00
6:53 PM,72.0,52.0,49,30.08,10.0,Calm,Calm,-,N/A,,Scattered Clouds,0,2013-08-09 00:53:00
7:53 PM,68.0,54.0,61,30.09,10.0,NE,6.9,-,N/A,,Clear,40,2013-08-09 01:53:00
8:53 PM,64.9,54.0,68,30.11,10.0,NNE,6.9,-,N/A,,Clear,30,2013-08-09 02:53:00
9:53 PM,63.0,55.0,75,30.12,10.0,East,16.1,-,N/A,,Overcast,80,2013-08-09 03:53:00
10:53 PM,60.1,54.0,80,30.14,10.0,East,10.4,-,N/A,,Scattered Clouds,80,2013-08-09 04:53:00
11:53 PM,59.0,53.1,81,30.15,10.0,ENE,9.2,-,N/A,,Clear,70,2013-08-09 05:53:00